Weather History for Homestead AFB, FL

Change the Weather History Date:

Tuesday, September 10, 2013

  Actual Average Record
Temperature  
Mean Temperature 82 °F -  
Max Temperature 88 °F 90 °F 95 °F (1954)
Min Temperature 77 °F 72 °F 64 °F (1950)
Cooling Degree Days 17    
Growing Degree Days 32 (Base 50)    
Moisture  
Dew Point 75 °F    
Average Humidity 82    
Maximum Humidity 94    
Minimum Humidity 66    
Precipitation  
Precipitation 0.85 in - - ()
Sea Level Pressure  
Sea Level Pressure 30.00 in    
Wind  
Wind Speed 7 mph (ENE)    
Max Wind Speed 20 mph    
Max Gust Speed 29 mph    
Visibility 8 miles    
Events Rain , Thunderstorm    
Averages and records for this station are not official NWS values.
T = Trace of Precipitation, MM = Missing Value Source: NWS Daily Summary

Daily Weather History Graph

Daily Weather History Graph

Search for Another Location

Airport:

Trip Planner

Search our weather history database for the weather conditions in past years. The results will help you decide how hot, cold, wet, or windy it might be!

Date:

Astronomy

Sep. 10, 2013 Rise Set
Actual Time 7:05 AM EDT 7:30 PM EDT
Civil Twilight 6:42 AM EDT 7:53 PM EDT
Nautical Twilight 6:15 AM EDT 8:20 PM EDT
Astronomical Twilight 5:48 AM EDT 8:47 PM EDT
Moon 11:54 AM EDT (9/10) 11:08 PM EDT (9/10)
Length of Visible Light 13h 11m
Length of Day
12h 25m
Waxing Crescent, 28% of the Moon is Illuminated
Sep 10
Waxing Crescent
Sep 12
First Quarter
Sep 19
Full
Sep 26
Last Quarter
Oct 4
New

Hourly Weather History & Observations

Time (EDT) Temp. Heat Index Dew Point Humidity Pressure Visibility Wind Dir Wind Speed Gust Speed Precip Events Conditions
12:58 AM 78.3 °F - 74.3 °F 88% 29.99 in 10.0 mi NE 5.8 mph - N/A   Clear
1:58 AM 78.8 °F - 74.7 °F 87% 29.99 in 10.0 mi ENE 3.5 mph - N/A   Clear
2:58 AM 80.1 °F 84.8 °F 74.5 °F 83% 29.97 in 10.0 mi East 5.8 mph - N/A   Clear
3:46 AM 78.8 °F - 75.2 °F 89% 29.97 in 5.0 mi East 12.7 mph 17.3 mph N/A Rain Light Rain
3:51 AM 78.8 °F - 73.4 °F 83% 29.97 in 1.0 mi Variable 4.6 mph 17.3 mph N/A Rain Heavy Rain
3:56 AM 77.0 °F - 71.6 °F 83% 29.96 in 1.0 mi NNW 2.3 mph - N/A Rain Heavy Rain
3:58 AM 77.0 °F - 71.6 °F 83% 29.97 in 1.0 mi Variable 1.2 mph - 0.46 in Rain Rain
4:03 AM 77.0 °F - 71.6 °F 83% 29.95 in 3.0 mi NNE 2.3 mph - N/A Rain Light Rain
4:07 AM 77.0 °F - 71.6 °F 83% 29.95 in 10.0 mi Calm Calm - N/A   Mostly Cloudy
4:58 AM 77.4 °F - 75.0 °F 92% 29.96 in 10.0 mi ENE 2.3 mph - 0.01 in   Clear
5:58 AM 77.9 °F - 75.2 °F 91% 29.98 in 10.0 mi Calm Calm - N/A   Partly Cloudy
6:58 AM 78.1 °F - 75.0 °F 90% 29.98 in 10.0 mi North 2.3 mph - N/A   Clear
7:58 AM 79.0 °F - 75.7 °F 90% 30.01 in 10.0 mi NE 2.3 mph - N/A   Clear
8:58 AM 83.7 °F 91.7 °F 75.4 °F 76% 30.02 in 10.0 mi East 9.2 mph - N/A   Partly Cloudy
9:58 AM 85.1 °F 93.7 °F 75.2 °F 72% 30.03 in 10.0 mi East 10.4 mph - N/A   Clear
10:55 AM 86.0 °F 95.1 °F 75.2 °F 70% 30.04 in 10.0 mi East 13.8 mph - N/A   Partly Cloudy
11:55 AM 86.0 °F 95.1 °F 75.2 °F 70% 30.04 in 10.0 mi East 12.7 mph - N/A   Clear
12:55 PM 87.8 °F 97.6 °F 75.2 °F 66% 30.02 in 10.0 mi East 11.5 mph - N/A   Clear
1:58 PM 86.7 °F 97.8 °F 76.8 °F 72% 30.02 in 10.0 mi East 9.2 mph - N/A   Scattered Clouds
2:58 PM 87.4 °F 96.7 °F 74.7 °F 66% 30.01 in 10.0 mi East 13.8 mph - N/A   Clear
3:58 PM 86.2 °F 96.0 °F 75.9 °F 71% 29.98 in 10.0 mi ENE 13.8 mph - N/A   Partly Cloudy
4:58 PM 84.6 °F 93.5 °F 75.7 °F 75% 29.99 in 10.0 mi ENE 12.7 mph - N/A   Partly Cloudy
5:58 PM 84.2 °F 92.6 °F 75.4 °F 75% 29.99 in 10.0 mi East 10.4 mph - N/A   Clear
6:25 PM 84.2 °F 92.3 °F 75.2 °F 74% 29.99 in 10.0 mi East 9.2 mph - N/A Rain Light Rain
6:39 PM 82.4 °F 89.5 °F 75.2 °F 79% 30.00 in 10.0 mi NE 11.5 mph - N/A   Clear
6:58 PM 81.5 °F 86.7 °F 73.4 °F 76% 30.01 in 5.0 mi ENE 19.6 mph 26.5 mph 0.00 in Rain , Thunderstorm Rain
7:09 PM 78.8 °F - 75.2 °F 89% 30.00 in 0.8 mi NE 9.2 mph 27.6 mph N/A Rain Heavy Rain
7:11 PM 77.0 °F - 75.2 °F 94% 30.01 in 0.8 mi ENE 8.1 mph - N/A Rain , Thunderstorm Heavy Rain
7:18 PM 77.0 °F - 75.2 °F 94% 30.00 in 3.0 mi ENE 10.4 mph - N/A Rain Rain
7:33 PM 78.8 °F - 75.2 °F 89% 30.00 in 10.0 mi ENE 10.4 mph - N/A Rain Light Rain
7:58 PM 80.1 °F 85.1 °F 75.2 °F 85% 30.01 in 10.0 mi East 10.4 mph - 0.33 in   Clear
8:58 PM 81.3 °F 87.4 °F 75.0 °F 81% 30.03 in 10.0 mi ESE 10.4 mph - N/A   Partly Cloudy
9:58 PM 81.3 °F 87.6 °F 75.2 °F 82% 30.04 in 10.0 mi ESE 8.1 mph - N/A   Clear
10:23 PM 80.6 °F 86.2 °F 75.2 °F 84% 30.02 in 7.0 mi ENE 18.4 mph 28.8 mph N/A Rain Light Rain
10:38 PM 78.8 °F - 75.2 °F 89% 30.04 in 10.0 mi ESE 6.9 mph - N/A Rain Light Rain
10:47 PM 78.8 °F - 75.2 °F 89% 30.04 in 10.0 mi SE 5.8 mph - N/A   Scattered Clouds
10:58 PM 78.6 °F - 75.4 °F 90% 30.03 in 10.0 mi East 5.8 mph - 0.05 in   Scattered Clouds
11:58 PM 79.3 °F - 74.7 °F 86% 30.03 in 10.0 mi East 5.8 mph - N/A   Clear